FW7842 Weather Reports


time (UTC)temp
C
wind
direction
speed
KPH
gust
KPH
rain 1hr
cm
rain 24hr
cm
rain mn
cm
humidity
%
barometer
mb
20260906010533 13 0.0 0.0 0.00 0.03 0.00 82 1021.3
20260906005528 13 0.0 0.0 0.00 0.03 0.00 81 1021.3
20260906004533 13 0.0 0.0 0.00 0.03 0.00 80 1021.2
20260906003528 13 0.0 0.0 0.00 0.03 0.00 79 1021.1
20260906002533 13 0.0 0.0 0.00 0.03 0.00 77 1021.1
20260906001528 14 0.0 0.0 0.00 0.03 0.00 76 1021.0
20260906000533 14 0.0 0.0 0.00 0.03 0.00 75 1020.9
20260905235529 15 0.0 0.0 0.00 0.03 0.03 74 1020.9
20260905234533 15 0.0 0.0 0.00 0.03 0.03 72 1020.9
20260905233528 16 0.0 0.0 0.00 0.03 0.03 69 1021.1
20260905232533 17 162 0.0 1.6 0.00 0.03 0.03 67 1021.0
20260905231528 17 70 0.0 1.6 0.00 0.03 0.03 65 1020.9
20260905230533 17 27 0.0 1.6 0.00 0.03 0.03 66 1020.8
20260905225528 17 30 0.0 1.6 0.00 0.03 0.03 66 1020.9
20260905224553 17 12 0.0 4.8 0.00 0.03 0.03 67 1020.8
20260905223529 17 325 0.0 8.0 0.00 0.03 0.03 68 1020.7
20260905222520 16 72 0.0 1.6 0.00 0.03 0.03 69 1020.7
20260905221534 17 0.0 0.0 0.00 0.03 0.03 68 1020.8
20260905220533 17 0.0 0.0 0.00 0.03 0.03 67 1020.8
20260905215528 17 26 0.0 1.6 0.00 0.03 0.03 66 1020.9
20260905214521 18 4 0.0 4.8 0.00 0.03 0.03 65 1020.7
20260905213528 17 46 0.0 1.6 0.00 0.03 0.03 66 1020.6
20260905212533 17 49 0.0 1.6 0.00 0.03 0.03 68 1020.6
20260905211529 16 38 0.0 6.4 0.00 0.03 0.03 69 1020.6
20260905210521 15 353 0.0 8.0 0.00 0.03 0.03 72 1020.6
20260905205528 15 23 0.0 1.6 0.00 0.03 0.03 74 1020.6
20260905204520 15 0.0 0.0 0.00 0.03 0.03 73 1020.5
20260905203528 15 0.0 0.0 0.00 0.03 0.03 71 1020.3
20260905202533 15 0.0 0.0 0.00 0.03 0.03 70 1020.2
20260905201528 15 91 0.0 1.6 0.00 0.03 0.03 71 1020.1
20260905200553 15 24 0.0 1.6 0.00 0.03 0.03 73 1019.9
20260905195529 15 0.0 0.0 0.00 0.03 0.03 72 1019.9
20260905194533 14 74 0.0 1.6 0.00 0.03 0.03 73 1019.9
20260905193528 14 0.0 0.0 0.00 0.03 0.03 73 1019.6
20260905192534 15 0.0 0.0 0.00 0.03 0.03 72 1019.5
20260905191528 15 0.0 0.0 0.00 0.03 0.03 70 1019.4
20260905190521 15 0.0 0.0 0.00 0.03 0.03 68 1019.3
20260905185528 16 0.0 0.0 0.00 0.03 0.03 66 1019.3
20260905184533 16 0.0 0.0 0.00 0.03 0.03 65 1019.2
20260905183529 17 0.0 0.0 0.00 0.03 0.03 63 1019.2
20260905182520 17 0.0 0.0 0.00 0.03 0.03 61 1019.1
20260905181614 17 0.0 0.0 0.00 0.03 0.03 60 1018.8
20260905180520 17 0.0 0.0 0.00 0.03 0.03 59 1018.7
20260905175528 18 0.0 0.0 0.00 0.03 0.03 56 1018.7
20260905174521 20 0.0 0.0 0.00 0.03 0.03 52 1018.7
20260905173529 20 8 0.0 1.6 0.00 0.03 0.03 50 1018.7
20260905172533 21 21 0.0 4.8 0.00 0.03 0.03 49 1018.6
20260905171529 21 97 0.0 1.6 0.00 0.03 0.03 47 1018.4
20260905170533 21 31 0.0 1.6 0.00 0.03 0.03 47 1018.2
20260905165549 22 88 0.0 1.6 0.00 0.03 0.03 45 1018.1
20260905164533 22 29 0.0 4.8 0.00 0.03 0.03 44 1018.1
20260905163648 23 11 1.6 6.4 0.00 0.03 0.03 43 1018.1
20260905162553 23 22 3.2 8.0 0.00 0.03 0.03 46 1018.1
20260905161609 23 17 1.6 6.4 0.00 0.03 0.03 48 1017.9
20260905160533 23 56 0.0 4.8 0.00 0.03 0.03 48 1017.8
20260905155528 23 34 1.6 6.4 0.00 0.03 0.03 48 1017.6
20260905154534 23 83 0.0 4.8 0.00 0.03 0.03 49 1017.9
20260905153530 23 136 1.6 6.4 0.00 0.03 0.03 51 1017.9
20260905152520 23 151 0.0 4.8 0.00 0.03 0.03 55 1017.8
20260905151548 23 128 1.6 6.4 0.00 0.03 0.03 54 1017.7
20260905150542 23 116 1.6 8.0 0.00 0.03 0.03 52 1017.7
20260905145529 23 114 1.6 4.8 0.00 0.03 0.03 51 1017.7
20260905144541 23 131 1.6 8.0 0.00 0.03 0.03 53 1017.9
20260905143529 23 118 1.6 6.4 0.00 0.03 0.03 51 1017.7
20260905142534 23 52 0.0 4.8 0.00 0.03 0.03 52 1017.7
20260905141609 23 254 0.0 1.6 0.00 0.03 0.03 53 1017.6
20260905140534 22 36 1.6 4.8 0.00 0.03 0.03 56 1017.7
20260905135530 22 45 1.6 4.8 0.00 0.03 0.03 56 1017.8
20260905134521 22 24 0.0 1.6 0.00 0.03 0.03 60 1017.7
20260905133534 21 69 0.0 1.6 0.00 0.03 0.03 60 1017.8
20260905132521 21 24 1.6 4.8 0.00 0.03 0.03 62 1017.9
20260905131529 21 358 0.0 6.4 0.00 0.03 0.03 63 1017.9
20260905130522 21 21 1.6 6.4 0.03 0.03 0.03 64 1018.0
20260905125529 20 30 0.0 1.6 0.03 0.03 0.03 66 1018.5
20260905124533 18 71 0.0 4.8 0.03 0.03 0.03 73 1018.6
20260905123530 18 25 0.0 1.6 0.03 0.03 0.03 76 1018.7
20260905122540 19 38 0.0 1.6 0.03 0.03 0.03 74 1018.7
20260905121534 21 4 1.6 6.4 0.03 0.03 0.03 63 1018.1
20260905120521 24 6 3.2 14.5 0.00 0.00 0.00 43 1017.8
20260905115529 25 357 3.2 12.9 0.00 0.00 0.00 37 1017.9
20260905114533 26 12 3.2 12.9 0.00 0.00 0.00 36 1017.7
20260905113529 28 4 4.8 12.9 0.00 0.00 0.00 33 1017.3
20260905112533 30 353 4.8 14.5 0.00 0.00 0.00 32 1017.0
20260905111530 30 18 3.2 6.4 0.00 0.00 0.00 32 1017.1
20260905110533 29 36 3.2 6.4 0.00 0.00 0.00 33 1017.0
20260905105529 28 349 3.2 12.9 0.00 0.00 0.00 33 1017.1
20260905104533 30 353 3.2 14.5 0.00 0.00 0.00 31 1017.2
20260905103530 28 330 4.8 12.9 0.00 0.00 0.00 33 1017.5
20260905102521 28 2 3.2 9.7 0.00 0.00 0.00 34 1017.6
20260905101535 28 353 6.4 14.5 0.00 0.00 0.00 33 1017.5
20260905100521 28 341 8.0 14.5 0.00 0.00 0.00 34 1017.8
20260905095549 27 5 4.8 16.1 0.00 0.00 0.00 38 1017.8
20260905094522 26 342 4.8 16.1 0.00 0.00 0.00 40 1017.9
20260905093529 26 343 4.8 16.1 0.00 0.00 0.00 42 1018.0
20260905092553 26 332 11.3 30.6 0.00 0.00 0.00 44 1017.9
20260905091550 26 340 9.7 25.7 0.00 0.00 0.00 44 1017.7
20260905090521 26 342 9.7 29.0 0.00 0.00 0.00 46 1017.4
20260905085535 26 351 8.0 29.0 0.00 0.00 0.00 48 1017.3
20260905084533 27 353 8.0 22.5 0.00 0.00 0.00 46 1017.1
20260905083529 28 338 8.0 25.7 0.00 0.00 0.00 43 1016.5
20260905082522 29 348 8.0 24.1 0.00 0.00 0.00 41 1016.0
20260905081529 29 344 6.4 16.1 0.00 0.00 0.00 41 1015.5
20260905080533 29 356 6.4 12.9 0.00 0.00 0.00 40 1015.4
20260905075529 29 17 4.8 12.9 0.00 0.00 0.00 42 1015.3
20260905074533 28 356 4.8 14.5 0.00 0.00 0.00 44 1015.0
20260905073529 27 39 3.2 8.0 0.00 0.00 0.00 46 1014.8
20260905072534 26 54 1.6 8.0 0.00 0.00 0.00 48 1014.7
20260905071549 25 53 0.0 1.6 0.00 0.00 0.00 51 1014.4
20260905070553 25 139 1.6 6.4 0.00 0.00 0.00 51 1014.2
20260905065531 24 118 0.0 1.6 0.00 0.00 0.00 52 1014.1
20260905064533 24 80 0.0 1.6 0.00 0.00 0.00 52 1013.9
20260905063555 23 112 0.0 4.8 0.00 0.00 0.00 53 1013.8
20260905062521 23 119 1.6 4.8 0.00 0.00 0.00 55 1013.9
20260905061529 21 122 0.0 4.8 0.00 0.00 0.00 59 1014.1
20260905060522 20 137 0.0 1.6 0.00 0.00 0.00 64 1013.9
20260905055555 18 0.0 0.0 0.00 0.00 0.00 69 1013.9
20260905054533 18 112 0.0 1.6 0.00 0.00 0.00 69 1013.9
20260905053530 18 105 0.0 1.6 0.00 0.00 0.00 68 1013.9
20260905052521 18 0.0 0.0 0.00 0.00 0.00 68 1013.7
20260905051535 18 0.0 0.0 0.00 0.00 0.00 68 1013.5
20260905050641 18 0.0 0.0 0.00 0.00 0.00 67 1013.4
20260905045529 17 0.0 0.0 0.00 0.00 0.00 68 1013.4
20260905044533 17 0.0 0.0 0.00 0.00 0.00 70 1013.5
20260905043529 17 0.0 0.0 0.00 0.00 0.00 70 1013.3
20260905042533 17 0.0 0.0 0.00 0.00 0.00 70 1013.4
20260905041530 17 0.0 0.0 0.00 0.00 0.00 69 1013.2
20260905040533 17 0.0 0.0 0.00 0.00 0.00 67 1013.2
20260905035529 18 0.0 0.0 0.00 0.00 0.00 67 1013.0
20260905034533 18 0.0 0.0 0.00 0.00 0.00 67 1013.0
20260905033529 17 0.0 0.0 0.00 0.00 0.00 67 1012.9
20260905032522 17 103 0.0 1.6 0.00 0.00 0.00 68 1013.1
20260905031530 17 0.0 0.0 0.00 0.00 0.00 68 1013.0
20260905030533 17 0.0 0.0 0.00 0.00 0.00 67 1013.1
20260905025550 18 0.0 0.0 0.00 0.00 0.00 66 1013.1
20260905024521 18 0.0 0.0 0.00 0.00 0.00 64 1013.1
20260905023535 19 0.0 0.0 0.00 0.00 0.00 62 1013.1
20260905022533 18 128 0.0 4.8 0.00 0.00 0.00 63 1013.1
20260905021530 18 135 0.0 1.6 0.00 0.00 0.00 65 1013.1
20260905015529 16 0.0 0.0 0.00 0.00 0.00 74 1013.1
20260905014553 15 0.0 0.0 0.00 0.00 0.00 75 1012.8
20260905013530 15 0.0 0.0 0.00 0.00 0.00 76 1013.0
20260905012533 15 0.0 0.0 0.00 0.00 0.00 76 1012.8
20260905011529 15 0.0 0.0 0.00 0.00 0.00 74 1012.9